Weather History for Bandarabbass, Iran

Change the Weather History Date:

Monday, December 10, 2012

  Actual Average Record
Temperature  
Mean Temperature 73 °F -  
Max Temperature 84 °F 77 °F - ()
Min Temperature 62 °F 55 °F - ()
Cooling Degree Days 8    
Growing Degree Days 23 (Base 50)    
Moisture  
Dew Point 56 °F    
Average Humidity 61    
Maximum Humidity 88    
Minimum Humidity 30    
Precipitation  
Precipitation 0.00 in 0.04 in - ()
Sea Level Pressure  
Sea Level Pressure 29.92 in    
Wind  
Wind Speed 6 mph ()    
Max Wind Speed 9 mph    
Max Gust Speed -    
Visibility 5.1 miles    
Events      
T = Trace of Precipitation, MM = Missing Value Source: Averaged Metar Reports

Daily Weather History Graph

Daily Weather History Graph

Search for Another Location

Airport:

Trip Planner

Search our weather history database for the weather conditions in past years. The results will help you decide how hot, cold, wet, or windy it might be!

Date:

Astronomy

Dec. 10, 2012 Rise Set
Actual Time 6:23 AM IRST 4:51 PM IRST
Civil Twilight 5:57 AM IRST 5:16 PM IRST
Nautical Twilight 5:28 AM IRST 5:45 PM IRST
Astronomical Twilight 5:00 AM IRST 6:14 PM IRST
Moon 2:50 AM IRST (12/10) 2:12 PM IRST (12/10)
Length of Visible Light 11h 18m
Length of Day
10h 27m
Waning Crescent, 13% of the Moon is Illuminated
Dec 10
Waning Crescent
Dec 13
New
Dec 20
First Quarter
Dec 28
Full
Jan 5
Last Quarter

Hourly Weather History & Observations

Time (IRST) Temp. Heat Index Dew Point Humidity Pressure Visibility Wind Dir Wind Speed Gust Speed Precip Events Conditions
12:30 AM 64.4 °F - 60.8 °F 88% 29.92 in 5.0 mi NNW 6.9 mph - N/A   Unknown
1:20 AM 64.4 °F - 60.8 °F 88% 29.92 in 5.0 mi NNW 6.9 mph - N/A   Unknown
1:30 AM 64.4 °F - 60.8 °F 88% 29.92 in 5.0 mi NNW 6.9 mph - N/A   Unknown
2:20 AM 64.4 °F - 60.8 °F 88% 29.92 in 5.0 mi NNW 6.9 mph - N/A   Unknown
3:20 AM 64.4 °F - 60.8 °F 88% 29.92 in 4.3 mi North 6.9 mph - N/A   Unknown
3:30 AM 65 °F - 60 °F 80% 29.94 in 4 mi North 6.7 mph - -   Mist
3:30 AM 64.4 °F - 60.8 °F 88% 29.92 in 4.3 mi North 6.9 mph - N/A   Unknown
4:20 AM 62.6 °F - 59.0 °F 88% 29.89 in 4.3 mi North 6.9 mph - N/A   Unknown
4:30 AM 62.6 °F - 59.0 °F 88% 29.89 in 4.3 mi North 6.9 mph - N/A   Unknown
5:20 AM 62.6 °F - 59.0 °F 88% 29.92 in 4.3 mi NNW 6.9 mph - N/A   Unknown
5:30 AM 62.6 °F - 59.0 °F 88% 29.92 in 4.3 mi NNW 6.9 mph - N/A   Unknown
6:20 AM 62.6 °F - 59.0 °F 88% 29.95 in 5.0 mi North 6.9 mph - N/A   Unknown
6:30 AM 62.6 °F - 59.0 °F 88% 29.95 in 5.0 mi North 6.9 mph - N/A   Unknown
7:00 AM 62.6 °F - 59.0 °F 88% 29.95 in - North 4.6 mph - N/A   Clear
7:20 AM 62.6 °F - 59.0 °F 88% 29.95 in - NNW 6.9 mph - N/A   Clear
7:30 AM 62.6 °F - 59.0 °F 88% 29.95 in - NNW 6.9 mph - N/A   Clear
8:00 AM 69.8 °F - 62.6 °F 78% 29.98 in - North 6.9 mph - N/A   Clear
8:20 AM 71.6 °F - 60.8 °F 69% 29.98 in - North 6.9 mph - N/A   Clear
8:30 AM 71.6 °F - 60.8 °F 69% 29.98 in - North 6.9 mph - N/A   Clear
9:00 AM 75.2 °F - 55.4 °F 50% 29.98 in - NNE 4.6 mph - N/A   Clear
9:20 AM 75.2 °F - 55.4 °F 50% 29.98 in - NE 4.6 mph - N/A   Clear
9:30 AM 76 °F - 55 °F 38% 30.01 in 7 mi NE 4.5 mph - -  
9:30 AM 75.2 °F - 55.4 °F 50% 29.98 in - NE 4.6 mph - N/A   Clear
10:00 AM 77.0 °F - 57.2 °F 50% 29.98 in - NE 4.6 mph - N/A   Clear
10:20 AM 77.0 °F - 55.4 °F 47% 29.98 in - North 6.9 mph - N/A   Clear
10:30 AM 77.0 °F - 55.4 °F 47% 29.98 in - North 6.9 mph - N/A   Clear
11:00 AM 78.8 °F - 55.4 °F 44% 29.95 in - East 4.6 mph - N/A   Clear
11:20 AM 80.6 °F 80.3 °F 53.6 °F 39% 29.95 in - NE 4.6 mph - N/A   Clear
11:30 AM 80.6 °F 80.3 °F 53.6 °F 39% 29.95 in - NE 4.6 mph - N/A   Clear
12:00 PM 80.6 °F - 48.2 °F 32% 29.95 in - North 6.9 mph - N/A   Clear
12:30 PM 82.4 °F - 48.2 °F 30% 29.92 in - North 4.6 mph - N/A   Clear
1:00 PM 82.4 °F - 50.0 °F 32% 29.89 in - West 6.9 mph - N/A   Clear
1:20 PM 82.4 °F - 50.0 °F 32% 29.89 in - SSW 4.6 mph - N/A   Clear
1:30 PM 82.4 °F - 50.0 °F 32% 29.89 in - SSW 4.6 mph - N/A   Clear
2:00 PM 84.2 °F - 51.8 °F 33% 29.89 in - WSW 6.9 mph - N/A   Clear
2:20 PM 84.2 °F - 51.8 °F 33% 29.89 in - West 4.6 mph - N/A   Clear
2:30 PM 84.2 °F - 51.8 °F 33% 29.89 in - West 4.6 mph - N/A   Clear
3:00 PM 82.4 °F 81.7 °F 55.4 °F 39% 29.86 in - South 9.2 mph - N/A   Clear
3:20 PM 78.8 °F - 59.0 °F 51% 29.86 in - SSW 9.2 mph - N/A   Clear
3:30 PM 80 °F - 59 °F 39% 29.89 in 9 mi SSW 8.9 mph - -  
3:30 PM 78.8 °F - 59.0 °F 51% 29.86 in - SSW 9.2 mph - N/A   Clear
4:20 PM 78.8 °F - 51.8 °F 39% 29.86 in - SSW 9.2 mph - N/A   Clear
4:30 PM 78.8 °F - 51.8 °F 39% 29.86 in - SSW 9.2 mph - N/A   Clear
5:20 PM 73.4 °F - 55.4 °F 53% 29.89 in - WSW 6.9 mph - N/A   Clear
5:30 PM 73.4 °F - 55.4 °F 53% 29.89 in - WSW 6.9 mph - N/A   Clear
6:20 PM 69.8 °F - 57.2 °F 64% 29.89 in - SW 6.9 mph - N/A   Clear
6:30 PM 69.8 °F - 57.2 °F 64% 29.89 in - SW 6.9 mph - N/A   Clear
7:20 PM 66.2 °F - 57.2 °F 73% 29.89 in - SW 4.6 mph - N/A   Clear
7:30 PM 66.2 °F - 57.2 °F 73% 29.89 in - SW 4.6 mph - N/A   Clear
8:20 PM 68.0 °F - 57.2 °F 68% 29.92 in - WSW 4.6 mph - N/A   Clear
8:30 PM 68.0 °F - 57.2 °F 68% 29.92 in - WSW 4.6 mph - N/A   Clear
9:30 PM 70 °F - 57 °F 55% 29.93 in 6 mi West 8.9 mph - -   Clear
9:30 PM 69.8 °F - 57.2 °F 64% 29.92 in - West 9.2 mph - N/A   Clear
10:20 PM 69.8 °F - 55.4 °F 60% 29.92 in - West 6.9 mph - N/A   Clear
10:30 PM 69.8 °F - 55.4 °F 60% 29.92 in - West 6.9 mph - N/A   Clear
11:20 PM 68.0 °F - 51.8 °F 56% 29.92 in - West 6.9 mph - N/A   Clear
11:30 PM 68.0 °F - 51.8 °F 56% 29.92 in - West 6.9 mph - N/A   Clear